カタログに戻る

THORAD AGENA D DEB

運用中LEO
NORAD 4968·DEBRIS·🇺🇸 United States

打ち上げ Apr 8, 1970 から Vandenberg Space Force Base

Loading…

次のパス

TLE

Source: Space-Track
1 04968U 70025GN  26230.02802589  .00000105  00000-0  19668-3 0  9997
2 04968 100.1799 243.1149 0018897 227.2376 189.1621 13.62751624792836

AllMySatでTHORAD AGENA D DEBをリアルタイム追跡

Download on the App Store